Time,TemperatureF,DewpointF,PressureIn,WindDirection,WindDirectionDegrees,WindSpeedMPH,WindSpeedGustMPH,Humidity,HourlyPrecipIn,Conditions,Clouds,dailyrainin,SolarRadiationWatts/m^2,SoftwareType,DateUTC
2013-01-24 00:00:00,47.0,44.0,30.08,NNE,27,1.0,-999.0,87,0.00,,,-99.99,-1.000000,,2013-01-24 08:00:00,
2013-01-24 00:23:00,47.0,44.0,30.08,NNE,27,1.0,-999.0,87,0.00,,,-99.99,-1.000000,,2013-01-24 08:23:00,
2013-01-24 00:33:00,47.0,44.0,30.08,NNE,27,1.0,-999.0,87,0.00,,,-99.99,-1.000000,,2013-01-24 08:33:00,
2013-01-24 00:43:00,47.0,44.0,30.08,NNE,27,1.0,-999.0,87,0.00,,,-99.99,-1.000000,,2013-01-24 08:43:00,
2013-01-24 00:53:00,47.0,44.0,30.08,NNE,27,1.0,-999.0,87,0.00,,,-99.99,-1.000000,,2013-01-24 08:53:00,
2013-01-24 02:00:00,47.0,44.0,30.06,SW,221,1.0,-999.0,87,0.00,,,-99.99,0.100000,,2013-01-24 10:00:00,
2013-01-24 02:23:00,47.0,44.0,30.06,SW,221,1.0,-999.0,87,0.00,,,-99.99,0.100000,,2013-01-24 10:23:00,
2013-01-24 02:33:00,47.0,44.0,30.06,SW,221,1.0,-999.0,87,0.00,,,-99.99,0.100000,,2013-01-24 10:33:00,
2013-01-24 02:43:00,47.0,44.0,30.06,SW,221,1.0,-999.0,87,0.00,,,-99.99,0.100000,,2013-01-24 10:43:00,
2013-01-24 02:53:00,47.0,44.0,30.06,SW,221,1.0,-999.0,87,0.00,,,-99.99,0.100000,,2013-01-24 10:53:00,
2013-01-24 03:00:00,47.0,44.0,30.07,North,0,2.0,-999.0,89,0.00,,,-99.99,0.700000,,2013-01-24 11:00:00,
2013-01-24 03:23:00,47.0,44.0,30.07,North,0,2.0,-999.0,89,0.00,,,-99.99,0.700000,,2013-01-24 11:23:00,
2013-01-24 03:33:00,47.0,44.0,30.07,North,0,2.0,-999.0,89,0.00,,,-99.99,0.700000,,2013-01-24 11:33:00,
2013-01-24 03:43:00,47.0,44.0,30.07,North,0,2.0,-999.0,89,0.00,,,-99.99,0.700000,,2013-01-24 11:43:00,
2013-01-24 03:53:00,47.0,44.0,30.07,North,0,2.0,-999.0,89,0.00,,,-99.99,0.700000,,2013-01-24 11:53:00,
2013-01-24 04:00:00,49.0,44.0,30.06,North,6,4.0,-999.0,82,0.00,,,-99.99,1.300000,,2013-01-24 12:00:00,
2013-01-24 04:23:00,49.0,44.0,30.06,North,6,4.0,-999.0,82,0.00,,,-99.99,1.300000,,2013-01-24 12:23:00,
2013-01-24 04:33:00,49.0,44.0,30.06,North,6,4.0,-999.0,82,0.00,,,-99.99,1.300000,,2013-01-24 12:33:00,
2013-01-24 04:43:00,49.0,44.0,30.06,North,6,4.0,-999.0,82,0.00,,,-99.99,1.300000,,2013-01-24 12:43:00,
2013-01-24 04:53:00,49.0,44.0,30.06,North,6,4.0,-999.0,82,0.00,,,-99.99,1.300000,,2013-01-24 12:53:00,
2013-01-24 05:00:00,49.0,44.0,30.07,NNE,16,3.0,-999.0,82,0.00,,,-99.99,1.200000,,2013-01-24 13:00:00,
2013-01-24 05:23:00,49.0,44.0,30.07,NNE,16,3.0,-999.0,82,0.00,,,-99.99,1.200000,,2013-01-24 13:23:00,
2013-01-24 05:33:00,49.0,44.0,30.07,NNE,16,3.0,-999.0,82,0.00,,,-99.99,1.200000,,2013-01-24 13:33:00,
2013-01-24 05:43:00,49.0,44.0,30.07,NNE,16,3.0,-999.0,82,0.00,,,-99.99,1.200000,,2013-01-24 13:43:00,
2013-01-24 05:53:00,49.0,44.0,30.07,NNE,16,3.0,-999.0,82,0.00,,,-99.99,1.200000,,2013-01-24 13:53:00,
2013-01-24 06:00:00,49.0,44.0,30.08,NNE,18,4.0,-999.0,82,0.00,,,-99.99,0.000000,,2013-01-24 14:00:00,
2013-01-24 06:23:00,49.0,44.0,30.08,NNE,18,4.0,-999.0,82,0.00,,,-99.99,0.000000,,2013-01-24 14:23:00,
2013-01-24 06:33:00,49.0,44.0,30.08,NNE,18,4.0,-999.0,82,0.00,,,-99.99,0.000000,,2013-01-24 14:33:00,
2013-01-24 06:43:00,49.0,44.0,30.08,NNE,18,4.0,-999.0,82,0.00,,,-99.99,0.000000,,2013-01-24 14:43:00,
2013-01-24 06:54:00,49.0,44.0,30.08,NNE,18,4.0,-999.0,82,0.00,,,-99.99,0.000000,,2013-01-24 14:54:00,
2013-01-24 07:00:00,49.0,44.0,30.10,North,1,5.0,-999.0,82,0.00,,,-99.99,0.500000,,2013-01-24 15:00:00,
2013-01-24 07:23:00,49.0,44.0,30.10,North,1,5.0,-999.0,82,0.00,,,-99.99,0.500000,,2013-01-24 15:23:00,
2013-01-24 07:33:00,49.0,44.0,30.10,North,1,5.0,-999.0,82,0.00,,,-99.99,0.500000,,2013-01-24 15:33:00,
2013-01-24 07:43:00,49.0,44.0,30.10,North,1,5.0,-999.0,82,0.00,,,-99.99,0.500000,,2013-01-24 15:43:00,
2013-01-24 07:53:00,49.0,44.0,30.10,North,1,5.0,-999.0,82,0.00,,,-99.99,0.500000,,2013-01-24 15:53:00,
2013-01-24 08:00:00,48.0,44.0,30.12,NE,54,2.0,-999.0,86,0.00,,,-99.99,2.400000,,2013-01-24 16:00:00,
2013-01-24 08:23:00,48.0,44.0,30.12,NE,54,2.0,-999.0,86,0.00,,,-99.99,2.400000,,2013-01-24 16:23:00,
2013-01-24 08:33:00,48.0,44.0,30.12,NE,54,2.0,-999.0,86,0.00,,,-99.99,2.400000,,2013-01-24 16:33:00,
2013-01-24 08:43:00,48.0,44.0,30.12,NE,54,2.0,-999.0,86,0.00,,,-99.99,2.400000,,2013-01-24 16:43:00,
2013-01-24 09:00:00,50.0,45.0,30.13,NE,38,1.0,-999.0,81,0.00,,,-99.99,18.600000,,2013-01-24 17:00:00,
2013-01-24 09:32:00,50.0,45.0,30.13,NE,38,1.0,-999.0,81,0.00,,,-99.99,18.600000,,2013-01-24 17:32:00,
2013-01-24 09:42:00,50.0,45.0,30.13,NE,38,1.0,-999.0,81,0.00,,,-99.99,18.600000,,2013-01-24 17:42:00,
2013-01-24 09:52:00,50.0,45.0,30.13,NE,38,1.0,-999.0,81,0.00,,,-99.99,18.600000,,2013-01-24 17:52:00,
2013-01-24 10:00:00,52.0,47.0,30.15,NNE,32,5.0,-999.0,82,0.00,,,-99.99,141.600006,,2013-01-24 18:00:00,
2013-01-24 10:23:00,52.0,47.0,30.15,NNE,32,5.0,-999.0,82,0.00,,,-99.99,141.600006,,2013-01-24 18:23:00,
2013-01-24 10:33:00,52.0,47.0,30.15,NNE,32,5.0,-999.0,82,0.00,,,-99.99,141.600006,,2013-01-24 18:33:00,
2013-01-24 10:43:00,52.0,47.0,30.15,NNE,32,5.0,-999.0,82,0.00,,,-99.99,141.600006,,2013-01-24 18:43:00,
2013-01-24 10:53:00,52.0,47.0,30.15,NNE,32,5.0,-999.0,82,0.00,,,-99.99,141.600006,,2013-01-24 18:53:00,
2013-01-24 11:00:00,54.0,47.0,30.15,North,0,6.0,-999.0,76,0.00,,,-99.99,170.199997,,2013-01-24 19:00:00,
2013-01-24 11:22:00,54.0,47.0,30.15,North,0,6.0,-999.0,76,0.00,,,-99.99,170.199997,,2013-01-24 19:22:00,
2013-01-24 11:33:00,54.0,47.0,30.15,North,0,6.0,-999.0,76,0.00,,,-99.99,170.199997,,2013-01-24 19:33:00,
2013-01-24 11:42:00,54.0,47.0,30.15,North,0,6.0,-999.0,76,0.00,,,-99.99,170.199997,,2013-01-24 19:42:00,
2013-01-24 11:52:00,54.0,47.0,30.15,North,0,6.0,-999.0,76,0.00,,,-99.99,170.199997,,2013-01-24 19:52:00,
2013-01-24 12:00:00,55.0,48.0,30.15,North,5,3.0,-999.0,78,0.00,,,-99.99,99.199997,,2013-01-24 20:00:00,
2013-01-24 12:22:00,55.0,48.0,30.15,North,5,3.0,-999.0,78,0.00,,,-99.99,99.199997,,2013-01-24 20:22:00,
2013-01-24 12:33:00,55.0,48.0,30.15,North,5,3.0,-999.0,78,0.00,,,-99.99,99.199997,,2013-01-24 20:33:00,
2013-01-24 12:42:00,55.0,48.0,30.15,North,5,3.0,-999.0,78,0.00,,,-99.99,99.199997,,2013-01-24 20:42:00,
2013-01-24 12:52:00,55.0,48.0,30.15,North,5,3.0,-999.0,78,0.00,,,-99.99,99.199997,,2013-01-24 20:52:00,
2013-01-24 13:00:00,56.0,49.0,30.14,WSW,252,0.0,-999.0,78,0.00,,,-99.99,102.800003,,2013-01-24 21:00:00,
2013-01-24 13:23:00,56.0,49.0,30.14,WSW,252,0.0,-999.0,78,0.00,,,-99.99,102.800003,,2013-01-24 21:23:00,
2013-01-24 13:33:00,56.0,49.0,30.14,WSW,252,0.0,-999.0,78,0.00,,,-99.99,102.800003,,2013-01-24 21:33:00,
2013-01-24 13:43:00,56.0,49.0,30.14,WSW,252,0.0,-999.0,78,0.00,,,-99.99,102.800003,,2013-01-24 21:43:00,
2013-01-24 13:53:00,56.0,49.0,30.14,WSW,252,0.0,-999.0,78,0.00,,,-99.99,102.800003,,2013-01-24 21:53:00,
2013-01-24 14:00:00,55.0,48.0,30.14,SSE,166,1.0,-999.0,78,0.00,,,-99.99,80.300003,,2013-01-24 22:00:00,
2013-01-24 14:22:00,55.0,48.0,30.14,SSE,166,1.0,-999.0,78,0.00,,,-99.99,80.300003,,2013-01-24 22:22:00,
2013-01-24 14:33:00,55.0,48.0,30.14,SSE,166,1.0,-999.0,78,0.00,,,-99.99,80.300003,,2013-01-24 22:33:00,
2013-01-24 14:42:00,55.0,48.0,30.14,SSE,166,1.0,-999.0,78,0.00,,,-99.99,80.300003,,2013-01-24 22:42:00,
2013-01-24 14:53:00,55.0,48.0,30.14,SSE,166,1.0,-999.0,78,0.00,,,-99.99,80.300003,,2013-01-24 22:53:00,
2013-01-24 19:00:00,50.0,49.0,30.15,NE,44,0.0,-999.0,96,0.00,,,-99.99,-0.600000,,2013-01-25 03:00:00,
2013-01-24 19:22:00,50.0,49.0,30.15,NE,44,0.0,-999.0,96,0.00,,,-99.99,-0.600000,,2013-01-25 03:22:00,
2013-01-24 19:33:00,50.0,49.0,30.15,NE,44,0.0,-999.0,96,0.00,,,-99.99,-0.600000,,2013-01-25 03:33:00,
2013-01-24 19:42:00,50.0,49.0,30.15,NE,44,0.0,-999.0,96,0.00,,,-99.99,-0.600000,,2013-01-25 03:42:00,
2013-01-24 19:52:00,50.0,49.0,30.15,NE,44,0.0,-999.0,96,0.00,,,-99.99,-0.600000,,2013-01-25 03:52:00,
2013-01-24 20:00:00,49.0,49.0,30.16,NNE,24,1.0,-999.0,97,0.00,,,-99.99,0.100000,,2013-01-25 04:00:00,
2013-01-24 20:22:00,49.0,49.0,30.16,NNE,24,1.0,-999.0,97,0.00,,,-99.99,0.100000,,2013-01-25 04:22:00,
2013-01-24 20:32:00,49.0,49.0,30.16,NNE,24,1.0,-999.0,97,0.00,,,-99.99,0.100000,,2013-01-25 04:32:00,
2013-01-24 20:42:00,49.0,49.0,30.16,NNE,24,1.0,-999.0,97,0.00,,,-99.99,0.100000,,2013-01-25 04:42:00,
2013-01-24 20:51:00,49.0,49.0,30.16,NNE,24,1.0,-999.0,97,0.00,,,-99.99,0.100000,,2013-01-25 04:51:00,
2013-01-24 22:00:00,49.0,49.0,30.17,North,0,0.0,-999.0,98,0.01,,,-99.99,0.100000,,2013-01-25 06:00:00,
2013-01-24 22:22:00,49.0,49.0,30.17,North,0,0.0,-999.0,98,0.01,,,-99.99,0.100000,,2013-01-25 06:22:00,
2013-01-24 22:32:00,49.0,49.0,30.17,North,0,0.0,-999.0,98,0.01,,,-99.99,0.100000,,2013-01-25 06:32:00,
2013-01-24 22:42:00,49.0,49.0,30.17,North,0,0.0,-999.0,98,0.01,,,-99.99,0.100000,,2013-01-25 06:42:00,
2013-01-24 22:52:00,49.0,49.0,30.17,North,0,0.0,-999.0,98,0.01,,,-99.99,0.100000,,2013-01-25 06:52:00,
2013-01-24 23:00:00,50.0,50.0,30.17,North,4,2.0,-999.0,98,0.02,,,-99.99,0.200000,,2013-01-25 07:00:00,
2013-01-24 23:22:00,50.0,50.0,30.17,North,4,2.0,-999.0,98,0.02,,,-99.99,0.200000,,2013-01-25 07:22:00,
2013-01-24 23:32:00,50.0,50.0,30.17,North,4,2.0,-999.0,98,0.02,,,-99.99,0.200000,,2013-01-25 07:32:00,
2013-01-24 23:42:00,50.0,50.0,30.17,North,4,2.0,-999.0,98,0.02,,,-99.99,0.200000,,2013-01-25 07:42:00,
2013-01-24 23:52:00,50.0,50.0,30.17,North,4,2.0,-999.0,98,0.02,,,-99.99,0.200000,,2013-01-25 07:52:00,